This is the latest recevied weather packets stored in our database for station/object G4ZMG. If no packets are shown the sender has not sent any weather packets the latest 10 day(s).
| Time | Temp. | Humidity | Pressure | Rain* | Wind** | Luminosity | Snow |
|---|---|---|---|---|---|---|---|
| 1777384204 | 11.11° C | 76% | 1025.4 hPa | 0 mm | - | 272 W/m² | - |
| 1777383604 | 10.56° C | 77% | 1025.4 hPa | 0 mm | - | 336 W/m² | - |
| 1777383004 | 10.56° C | 78% | 1025.5 hPa | 0 mm | - | 290 W/m² | - |
| 1777382404 | 10° C | 81% | 1025.5 hPa | 0 mm | - | 232 W/m² | - |
| 1777381804 | 9.44° C | 81% | 1025.6 hPa | 0 mm | - | 302 W/m² | - |
| 1777381209 | 9.44° C | 82% | 1025.6 hPa | 0 mm | - | 323 W/m² | - |
| 1777380604 | 9.44° C | 82% | 1025.7 hPa | 0 mm | - | 111 W/m² | - |
| 1777380004 | 9.44° C | 81% | 1025.8 hPa | 0 mm | - | 105 W/m² | - |
| 1777379404 | 9.44° C | 81% | 1025.9 hPa | 0 mm | - | 67 W/m² | - |
| 1777378803 | 9.44° C | 82% | 1025.9 hPa | 0 mm | - | 190 W/m² | - |
| 1777378204 | 9.44° C | 81% | 1025.9 hPa | 0 mm | - | 158 W/m² | - |
| 1777377608 | 9.44° C | 81% | 1025.9 hPa | 0 mm | - | 111 W/m² | - |
| 1777377004 | 9.44° C | 81% | 1026 hPa | 0 mm | - | 76 W/m² | - |
| 1777376404 | 10° C | 80% | 1026 hPa | 0 mm | - | 72 W/m² | - |
| 1777375804 | 10° C | 80% | 1025.9 hPa | 0 mm | - | 93 W/m² | - |
| 1777375204 | 10.56° C | 80% | 1025.8 hPa | 0 mm | - | 190 W/m² | - |
| 1777374604 | 10.56° C | 80% | 1025.8 hPa | 0 mm | - | 206 W/m² | - |
| 1777374007 | 10° C | 82% | 1025.8 hPa | 0 mm | - | 380 W/m² | - |
| 1777373403 | 10° C | 81% | 1025.7 hPa | 0 mm | - | 199 W/m² | - |
| 1777372804 | 11.11° C | 82% | 1025.6 hPa | 0 mm | - | 329 W/m² | - |
| 1777372205 | 9.44° C | 85% | 1025.7 hPa | 0 mm | - | 292 W/m² | - |
| 1777371605 | 9.44° C | 85% | 1025.7 hPa | 0 mm | - | 107 W/m² | - |
| 1777371005 | 8.89° C | 85% | 1025.7 hPa | 0 mm | - | 79 W/m² | - |
| 1777370407 | 8.89° C | 85% | 1025.8 hPa | 0 mm | - | 98 W/m² | - |
| 1777369804 | 8.89° C | 85% | 1025.8 hPa | 0 mm | - | 125 W/m² | - |
* Rain latest hour (hover to see other rain measurements)
** Current wind speed in m/s (hover to see current wind gust speed)